Orbital Elements at Epoch 2459200.5 (2020-Dec-17.0) TDB
Reference: JPL 17 (heliocentric ecliptic J2000)
Element | Value | Uncertainty (1-sigma) | Units |
e | .09666789873835563 | 4.0447e-08 | |
a | 2.407542606258001 | 1.3362e-08 | au |
q | 2.174810521387975 | 9.6757e-08 | au |
i | 1.231731044338554 | 4.241e-06 | deg |
node | 92.44374947993144 | 0.00022103 | deg |
peri | 158.2872034337683 | 0.00022244 | deg |
M | 56.32121589049597 | 2.3845e-05 | deg |
tp | 2458987.033897637483 (2020-May-17.53389764) | 9.0596e-05 | TDB |
period | 1364.455572122579 3.74 | 1.1359e-05 3.11e-08 | d yr |
n | .2638414964585292 | 2.1964e-09 | deg/d |
Q | 2.640274691128026 | 1.4653e-08 | au |
|
| | Orbit Determination Parameters
Additional Information
|